Helicity
-40 -37 -43 -24 9 42 29 11 -5 0 53 169 177 196 232 234 214 155 228 211 185 173 208 171 144 137 221 131 66 58 123 176 191 190 195 243 225 105
-25 -15 -29 -43 -39 -2 33 33 20 -2 34 97 121 175 291 235 197 120 123 207 310 236 177 216 188 145 133 185 168 151 131 153 156 190 184 194 220 230
6 0 -6 -29 -32 -35 -8 13 21 18 15 18 10 72 125 235 327 277 193 194 230 338 310 312 336 283 254 208 197 196 115 124 206 198 207 193 183 182
16 28 33 9 3 -22 -53 -42 -44 -16 19 23 7 53 172 254 384 324 293 287 301 408 476 513 538 508 508 416 441 360 285 132 150 247 212 216 202 177
-7 4 15 11 12 -5 -9 -26 -54 -75 -39 -21 -9 102 177 260 392 393 275 391 339 347 393 496 515 516 528 513 502 426 337 257 150 231 -23 118 253 205
-2 -11 -3 -6 1 -10 -15 -11 -11 -25 -30 -10 24 61 207 328 309 430 264 366 415 509 465 459 461 506 513 608 475 436 374 389 366 329 272 118 73 261
16 9 3 21 16 9 -30 -15 -7 -22 -24 -19 25 41 154 359 325 398 419 315 536 679 603 585 492 444 476 528 427 375 323 224 214 350 483 325 51 78
49 47 31 44 18 11 15 18 26 2 -18 -42 -13 37 156 307 362 384 403 268 280 459 391 672 547 576 478 497 481 454 455 357 257 205 257 322 175 107
15 36 52 53 47 26 20 32 40 80 35 -29 -28 32 63 189 323 331 399 298 405 454 475 501 392 315 348 302 424 319 358 318 293 270 200 319 352 305
0 -1 26 50 62 37 22 28 17 18 49 22 20 2 20 76 122 157 194 239 277 378 426 371 509 390 260 272 351 332 298 311 350 334 284 287 402 445
15 -1 0 27 88 88 46 42 51 52 32 73 82 106 119 164 163 166 161 171 205 228 353 250 268 242 233 254 241 272 285 269 285 314 313 354 336 344
7 12 61 42 78 91 41 36 34 59 71 95 104 111 133 164 213 168 149 86 88 113 276 200 241 200 148 135 217 266 274 358 348 343 332 329 373 269
-1 4 -7 54 62 72 60 17 16 7 39 41 57 80 96 111 129 113 84 78 82 81 195 106 210 210 144 124 128 203 218 272 290 300 316 297 261 262
26 6 11 59 55 69 45 80 83 40 26 27 47 72 91 110 106 99 96 54 35 55 133 140 44 120 116 125 157 203 164 211 248 277 292 277 274 252
52 64 76 81 73 38 69 72 55 44 30 26 26 40 43 39 66 96 89 56 80 126 140 169 122 115 59 44 36 122 108 115 195 209 201 204 201 231
69 71 63 69 59 44 40 47 34 26 19 20 27 30 41 72 88 93 85 109 81 135 138 160 155 119 62 38 46 94 106 89 156 167 181 145 142 161
56 69 80 67 68 65 52 49 43 45 46 41 39 45 46 57 62 69 64 70 49 101 143 159 157 81 37 44 57 87 118 119 145 156 148 158 144 151
72 59 59 56 50 43 41 43 41 43 37 32 31 25 26 38 43 38 43 38 47 65 80 100 125 92 43 20 63 75 80 99 126 142 135 156 155 181
77 72 66 58 48 49 50 49 37 28 30 31 25 29 29 31 26 45 59 51 30 34 38 52 69 80 89 76 12 31 74 87 108 118 113 116 157 198
86 80 70 69 66 65 63 55 50 51 53 43 35 30 23 28 25 34 29 25 41 43 40 44 49 58 43 56 73 93 85 61 80 108 112 114 117 130
85 82 75 78 71 68 61 54 49 51 52 33 33 21 7 6 14 18 22 22 16 22 36 53 65 54 24 16 31 75 97 87 75 80 91 105 122 129
84 85 82 77 74 73 66 64 59 63 61 52 28 9 -1 -3 1 7 -2 -5 -2 -7 1 13 28 33 29 41 72 93 106 115 113 83 64 51 90 131
87 87 84 85 78 71 71 71 72 58 58 51 40 29 17 8 1 -10 -7 -7 -8 -7 4 8 7 12 9 12 29 56 98 118 121 183 155 91 47 45
Wind_Speed
68 70 70 70 69 68 67 64 67 69 71 59 62 59 75 76 73 76 81 72 81 86 87 83 84 77 76 81 86 91 98 85 81 78 66 62 58 58
68 70 72 73 73 72 70 67 61 67 68 63 73 77 75 69 67 63 56 59 62 70 80 82 80 76 76 69 63 65 85 92 92 86 80 76 67 64
69 70 72 72 75 76 74 71 67 66 69 71 65 62 59 61 59 53 50 49 48 48 50 58 64 68 68 69 73 70 75 87 99 95 83 76 76 71
69 71 73 72 74 76 76 75 72 69 68 68 61 61 60 58 56 49 45 39 36 35 32 35 38 41 44 45 53 58 71 83 94 94 95 86 78 75
68 70 72 74 74 74 75 76 75 71 66 61 59 56 54 57 54 48 43 46 35 32 28 27 28 32 36 45 46 50 58 71 75 78 84 95 83 83
69 69 72 73 73 74 74 76 75 73 69 63 59 56 56 54 46 47 44 36 32 33 32 28 26 25 29 36 38 39 44 53 61 71 85 88 89 98
71 71 72 74 72 72 71 73 74 71 70 65 61 56 58 53 50 53 48 37 34 34 31 27 28 29 30 32 33 39 43 48 51 59 69 84 92 87
73 73 72 74 72 71 70 69 72 72 67 64 59 59 57 53 49 47 46 50 44 30 23 27 27 27 30 33 37 39 43 49 54 58 61 64 71 85
70 72 72 73 73 70 69 67 67 69 65 60 59 57 57 51 46 41 42 32 37 41 39 31 25 22 30 32 34 37 40 42 46 51 56 57 61 68
69 70 71 73 74 70 67 67 65 65 65 61 56 55 54 51 42 36 35 36 29 28 35 32 32 29 31 29 33 37 38 42 45 47 48 48 49 50
68 68 69 71 73 70 66 65 64 64 62 60 56 54 54 54 47 35 36 35 39 38 44 41 43 42 36 36 38 41 42 44 45 46 47 47 45 43
65 67 69 69 70 69 67 65 63 64 62 59 56 52 50 52 52 45 38 34 38 41 49 48 50 49 45 40 43 45 46 47 46 47 48 46 45 42
63 65 65 67 67 67 66 65 63 60 59 57 55 53 51 49 49 47 44 39 37 37 48 42 45 45 44 47 43 44 45 47 47 47 48 47 45 42
61 62 63 64 64 65 64 64 63 61 58 57 56 55 54 52 49 46 44 40 37 37 44 41 38 40 42 43 45 49 46 47 48 49 49 49 47 45
59 59 60 61 62 62 62 63 63 62 60 58 57 57 56 54 51 48 45 42 42 45 47 45 41 41 38 39 44 49 49 49 52 51 50 49 48 48
58 58 58 58 59 60 61 61 61 61 60 59 58 57 56 55 55 54 51 50 46 47 48 49 46 43 42 41 43 48 50 50 57 55 55 51 49 49
56 57 59 60 61 62 61 60 60 60 60 59 59 59 58 58 57 57 55 54 51 52 53 53 51 45 42 44 47 51 54 54 57 58 57 57 52 52
55 57 59 61 62 62 62 61 59 59 59 59 59 58 58 58 58 57 56 55 54 55 56 56 55 51 48 47 47 55 56 59 61 60 59 60 59 57
55 57 59 60 61 61 60 60 59 57 57 58 59 60 59 59 59 59 59 58 57 56 57 57 58 56 58 60 55 56 63 63 65 64 62 62 66 67
55 57 58 58 58 59 60 60 57 56 56 57 59 60 61 61 62 63 63 62 61 61 61 60 61 63 63 66 68 68 66 67 67 69 68 68 67 66
57 56 55 55 56 58 59 58 57 55 56 57 59 60 60 61 62 63 64 64 63 63 64 65 66 66 64 63 66 71 70 69 69 72 72 71 67 63
56 56 53 51 54 57 59 58 57 55 56 59 60 60 60 60 62 64 64 64 64 64 65 66 66 66 65 68 73 76 75 74 74 72 72 71 68 65
55 54 52 50 52 54 56 55 53 53 55 57 57 56 58 60 61 61 62 63 64 65 67 68 67 67 69 70 74 76 78 77 77 78 75 70 68 72
Wind_Direction
350 351 349 343 341 338 337 334 315 307 301 309 299 292 286 281 280 279 272 274 265 262 259 260 257 254 252 257 259 255 251 250 249 250 245 241 239 232
349 350 350 350 348 342 337 336 335 312 305 311 297 290 286 285 285 284 279 277 276 267 261 259 258 257 259 258 255 256 251 251 251 252 251 250 244 241
352 352 347 347 351 349 343 338 333 328 312 309 305 305 295 293 288 285 285 279 280 279 271 263 260 260 260 265 259 258 255 258 254 252 251 249 248 246
352 350 348 347 349 351 350 343 337 336 327 315 313 309 301 297 289 284 285 287 280 287 284 276 267 263 261 263 266 265 261 258 258 257 252 249 247 247
353 352 350 350 348 346 348 348 344 342 337 330 321 319 308 304 291 286 282 281 285 286 287 291 282 274 273 273 272 275 270 265 265 262 266 253 247 249
359 358 356 355 353 350 349 350 347 347 342 338 332 323 318 310 298 285 275 292 284 284 283 287 292 292 289 283 282 280 280 280 276 270 264 265 262 251
1 1 0 1 1 0 356 352 352 350 347 343 339 334 326 321 296 283 268 280 291 292 284 286 288 291 293 291 295 291 290 286 288 283 276 267 260 262
1 2 4 2 3 2 1 359 358 352 348 344 337 341 331 322 309 280 278 265 266 291 296 291 293 294 301 300 299 300 299 299 292 291 290 285 278 266
5 4 3 4 4 4 3 359 357 354 351 345 343 340 339 321 304 288 277 284 277 288 278 290 315 304 300 304 317 313 311 308 307 304 297 295 288 282
6 7 4 2 360 360 359 1 352 351 350 348 345 344 340 336 319 308 293 279 291 294 298 279 297 298 307 314 314 324 317 315 316 313 311 306 303 296
5 5 5 2 358 356 356 355 353 349 349 351 350 348 349 350 345 317 312 294 285 294 301 290 285 285 314 315 308 319 322 318 319 319 317 313 308 305
5 2 359 359 357 356 356 353 351 347 344 344 344 342 341 347 352 349 328 322 298 291 300 289 292 288 285 306 313 316 318 319 317 317 319 319 315 305
2 358 357 354 356 355 356 355 353 348 347 348 344 341 339 338 341 342 342 337 327 308 311 301 301 294 290 290 306 314 318 317 316 316 317 320 317 314
359 358 355 355 354 355 355 354 353 352 349 346 346 341 339 335 331 331 334 335 333 325 324 325 308 308 300 297 296 307 310 319 318 314 313 313 315 314
360 358 358 357 354 352 351 350 350 349 348 346 342 341 339 337 335 333 330 328 330 335 335 331 314 312 317 311 302 307 304 303 317 314 311 312 312 312
358 358 357 356 356 354 351 349 348 348 347 345 342 340 338 338 339 337 331 325 323 325 328 328 321 318 316 316 316 310 310 302 309 311 309 307 307 309
356 355 353 352 350 348 348 348 349 347 345 344 343 340 339 337 335 334 333 332 330 320 320 323 323 314 315 317 309 313 310 308 309 308 307 302 302 305
356 353 350 349 346 345 344 344 345 346 346 345 344 342 340 338 335 334 332 329 326 325 323 320 319 317 310 308 317 311 309 306 306 306 306 300 297 301
355 353 349 346 344 343 345 344 341 343 344 345 343 341 339 337 336 333 332 330 325 325 324 323 322 317 307 301 301 312 307 305 305 303 302 299 295 292
352 348 347 347 346 344 343 340 341 341 342 341 340 339 338 336 330 328 327 325 323 321 320 323 321 317 307 302 298 303 308 306 304 301 300 299 297 295
347 347 348 347 346 344 342 340 340 339 339 338 336 336 336 334 331 329 327 325 322 320 317 316 319 317 314 312 305 303 305 306 305 301 299 297 296 295
347 346 348 348 347 344 341 339 337 337 334 333 332 332 333 332 330 329 327 325 324 321 318 319 320 319 317 310 306 304 306 307 306 302 298 294 292 289
347 348 349 349 347 345 344 342 342 340 339 336 335 335 334 333 332 331 329 327 324 321 320 318 317 319 313 311 308 306 306 308 308 304 301 298 294 290